Temp
62 62 62 62 62 63 63 63 63 63 63 63 63 63 63 63 63 71 78 88 85 82 83 88 87 87 83 80 85 83 63 61 67 67 70 78 73 80 81 74 76 75 75 77 78
62 62 61 61 62 62 62 62 62 63 63 63 63 63 63 63 65 73 86 84 84 83 88 85 84 83 77 77 81 73 63 70 77 77 74 77 76 75 73 71 69 72 78 78 76
61 60 60 60 61 62 62 62 62 62 62 62 62 63 63 62 72 82 87 83 84 84 86 84 84 79 73 75 80 76 69 78 80 82 82 77 76 79 70 66 69 69 72 75 75
61 60 60 60 60 61 62 62 62 61 62 62 63 64 64 64 66 87 84 83 84 84 86 85 82 77 73 72 80 75 81 82 82 83 82 78 80 75 75 76 78 76 77 76 74
60 60 60 60 60 60 61 61 61 61 61 62 63 64 64 65 75 91 85 84 84 85 83 82 77 75 71 75 80 77 80 84 85 84 83 83 78 77 76 79 79 78 79 76 76
60 60 60 60 60 61 61 60 60 60 61 63 64 65 62 63 87 89 86 84 86 83 82 81 79 80 75 75 75 80 82 83 84 83 84 80 77 80 78 79 77 77 76 77 77
60 60 60 60 60 60 60 60 60 60 62 63 65 67 62 73 85 84 82 80 81 84 81 86 83 77 76 74 80 82 77 79 79 81 80 81 72 74 78 79 75 76 77 78 79
60 60 60 60 60 59 59 59 59 61 62 64 66 60 62 80 81 84 80 84 85 83 85 88 84 77 74 79 79 75 73 65 77 80 80 78 64 75 76 76 74 76 77 78 79
59 60 60 59 59 59 58 58 60 62 64 65 56 57 65 83 80 84 84 83 83 81 84 96 83 72 75 68 64 66 61 65 72 80 78 75 67 75 77 77 74 75 76 77 78
59 59 59 59 59 57 57 58 60 61 65 70 72 60 71 78 80 84 82 85 81 80 82 80 70 66 63 62 55 61 62 69 67 76 76 72 71 73 75 76 75 76 77 77 76
59 59 58 58 58 57 53 57 62 59 59 66 66 70 78 83 84 80 84 82 79 77 66 69 65 61 64 65 67 67 64 64 72 78 74 70 69 71 75 75 74 74 75 76 78
59 58 58 58 57 56 50 59 66 68 62 71 73 73 77 78 77 81 84 75 72 66 67 65 61 71 71 69 68 65 63 65 72 77 72 69 71 73 74 75 77 75 76 77 77
58 58 58 57 56 51 51 62 70 71 58 71 70 72 76 79 78 80 84 75 70 65 65 62 70 77 73 69 68 63 63 65 67 71 71 68 65 67 73 77 76 79 79 80 76
58 58 57 56 52 54 59 65 69 71 55 66 67 78 79 80 74 87 85 80 71 69 67 65 73 75 70 68 67 53 72 73 71 64 58 66 53 63 67 69 74 75 76 78 76
58 57 56 55 48 57 68 63 63 69 49 72 70 83 75 76 74 79 83 79 71 71 67 67 70 69 67 72 73 70 73 70 69 60 55 60 56 61 65 67 69 73 77 79 79
57 56 56 52 49 56 61 62 68 58 52 68 75 73 71 69 75 77 79 80 78 71 67 70 76 73 73 77 75 75 69 63 58 55 51 56 56 56 59 65 66 72 76 79 78
54 54 54 59 62 61 62 67 55 51 70 68 67 70 66 67 70 73 72 69 65 57 56 68 70 72 77 67 73 68 58 50 51 48 50 51 55 53 65 69 69 70 73 72 77
53 53 52 56 54 58 66 62 47 65 63 70 68 68 67 69 68 70 68 64 67 64 57 56 58 69 75 72 66 61 60 51 45 46 51 57 50 57 69 71 72 72 71 72 72
52 47 48 55 56 56 64 51 57 62 70 68 70 64 62 67 68 68 63 64 69 68 60 54 60 75 76 73 72 61 57 60 53 46 50 53 58 68 69 69 69 70 70 69 71
50 51 58 62 64 64 59 50 58 70 73 70 63 66 61 63 64 64 64 70 71 72 66 62 57 65 75 77 74 62 67 56 53 46 43 51 52 54 61 64 68 66 66 67 69
54 60 67 64 67 62 53 53 65 75 77 70 66 64 64 65 65 63 63 72 75 72 70 62 61 65 67 63 60 63 59 55 55 51 47 45 51 61 63 64 64 65 66 68 69
57 60 67 67 60 49 53 59 65 72 75 75 70 68 66 68 65 64 66 67 76 70 64 61 57 55 58 68 68 65 58 53 51 50 46 48 51 62 64 64 64 64 68 68 70
59 58 70 70 53 52 57 66 71 70 71 71 70 70 69 64 62 69 70 74 74 70 63 62 53 50 57 60 64 61 61 57 52 49 48 48 50 63 62 62 64 63 65 66 68
61 59 62 62 55 55 55 62 65 76 73 73 70 71 68 64 62 65 68 72 74 71 68 64 50 52 48 52 56 57 62 59 53 48 47 49 51 55 60 62 63 63 65 65 65
57 55 57 56 60 57 58 62 65 65 72 70 68 67 65 58 61 61 67 66 72 69 65 61 53 49 53 58 58 59 61 62 55 53 53 54 52 56 60 61 62 63 65 65 65
53 55 56 55 56 54 51 58 65 66 66 65 64 67 65 59 59 58 62 58 59 65 59 57 52 49 50 58 57 57 60 61 59 58 55 57 55 61 62 63 62 63 63 63 65
55 56 57 55 57 55 57 62 68 68 72 71 69 64 65 65 65 63 64 64 60 62 59 56 52 48 44 52 55 50 56 57 57 58 57 52 56 61 60 63 61 62 64 65 66
MSLP
1016.11 1015.83 1015.52 1015.25 1014.99 1014.74 1014.46 1014.18 1013.90 1013.57 1013.24 1012.85 1012.47 1012.03 1011.45 1010.83 1009.57 1008.97 1007.87 1005.95 1005.91 1005.83 1005.86 1005.75 1005.69 1005.77 1005.55 1005.97 1006.01 1006.48 1007.79 1008.23 1007.87 1007.77 1007.51 1007.55 1007.87 1008.24 1008.67 1008.99 1009.38 1009.66 1009.99 1010.25 1011.61
1016.06 1015.82 1015.55 1015.23 1014.91 1014.67 1014.40 1014.14 1013.83 1013.53 1013.18 1012.73 1012.32 1011.92 1011.38 1010.92 1009.99 1007.98 1005.15 1005.21 1005.65 1005.62 1005.59 1005.86 1005.56 1005.32 1005.43 1005.55 1005.65 1006.26 1006.93 1006.76 1006.37 1006.38 1006.69 1006.94 1007.10 1007.81 1008.78 1009.40 1009.75 1010.00 1010.10 1010.85 1011.76
1016.06 1015.81 1015.55 1015.25 1014.89 1014.56 1014.29 1014.05 1013.77 1013.42 1013.14 1012.73 1012.21 1011.73 1011.25 1010.93 1009.73 1006.35 1004.58 1005.18 1005.55 1005.59 1005.88 1005.81 1005.71 1005.71 1005.65 1005.46 1005.21 1005.52 1005.73 1005.57 1005.54 1005.43 1005.71 1006.17 1006.75 1007.44 1008.31 1009.32 1009.01 1009.62 1010.17 1011.05 1011.91
1015.99 1015.70 1015.41 1015.15 1014.84 1014.46 1014.18 1013.94 1013.69 1013.37 1013.05 1012.68 1012.21 1011.61 1011.09 1010.75 1008.74 1005.34 1004.59 1005.20 1005.40 1005.60 1005.78 1005.65 1005.63 1005.66 1005.70 1005.46 1004.72 1004.79 1004.70 1004.74 1004.80 1004.96 1005.28 1005.75 1006.11 1007.00 1007.78 1007.52 1007.83 1009.30 1010.02 1010.87 1011.58
1015.88 1015.56 1015.23 1014.97 1014.68 1014.42 1014.07 1013.81 1013.57 1013.28 1012.99 1012.62 1012.22 1011.66 1010.89 1010.05 1007.46 1004.82 1004.89 1005.32 1005.27 1005.56 1005.70 1005.73 1005.82 1005.70 1005.85 1005.38 1004.73 1004.64 1004.34 1004.33 1004.16 1004.51 1004.87 1005.25 1005.80 1006.41 1007.10 1007.53 1008.17 1009.08 1009.74 1010.39 1010.95
1015.68 1015.35 1015.05 1014.80 1014.53 1014.19 1013.89 1013.61 1013.39 1013.12 1012.80 1012.52 1012.18 1011.86 1011.32 1009.29 1005.59 1005.10 1005.13 1005.48 1005.46 1005.63 1005.58 1005.66 1005.64 1005.47 1005.76 1005.45 1005.20 1004.89 1004.35 1004.04 1004.14 1004.32 1004.53 1005.18 1005.78 1006.12 1006.96 1007.71 1008.36 1009.15 1009.46 1010.00 1010.57
1015.46 1015.16 1014.86 1014.55 1014.28 1013.96 1013.66 1013.40 1013.13 1012.87 1012.57 1012.38 1012.16 1011.92 1010.97 1007.28 1005.52 1005.37 1005.39 1005.41 1005.38 1005.44 1005.55 1005.18 1005.23 1005.60 1005.49 1005.54 1005.11 1004.67 1004.57 1004.26 1004.21 1004.17 1004.51 1005.08 1006.11 1006.28 1006.63 1007.61 1008.21 1008.97 1009.46 1009.77 1010.04
1015.27 1014.93 1014.59 1014.29 1014.01 1013.70 1013.37 1013.07 1012.77 1012.54 1012.32 1012.18 1012.08 1011.78 1009.69 1006.08 1005.65 1005.46 1005.03 1004.94 1004.92 1004.97 1005.07 1004.55 1004.75 1005.18 1005.53 1005.55 1005.35 1005.40 1005.25 1005.06 1004.24 1004.19 1004.41 1005.08 1005.92 1006.10 1006.74 1007.45 1008.20 1008.60 1009.14 1009.50 1009.71
1015.03 1014.66 1014.32 1014.03 1013.73 1013.43 1013.04 1012.65 1012.29 1012.04 1012.00 1011.99 1011.98 1011.38 1008.42 1005.68 1005.65 1004.71 1004.88 1004.96 1004.73 1004.68 1004.67 1004.52 1004.86 1006.07 1006.27 1006.67 1006.86 1006.79 1006.39 1005.60 1004.65 1003.98 1004.62 1005.26 1005.74 1005.76 1006.72 1007.26 1007.84 1008.32 1008.64 1009.06 1009.49
1014.75 1014.41 1014.08 1013.80 1013.50 1013.15 1012.61 1012.09 1011.77 1011.73 1011.79 1011.72 1011.40 1011.08 1007.65 1005.59 1004.73 1004.37 1004.59 1004.69 1004.95 1005.13 1005.25 1005.56 1006.47 1006.99 1007.47 1007.86 1008.08 1007.48 1007.00 1006.08 1004.92 1004.20 1004.62 1005.19 1005.42 1005.63 1006.42 1007.00 1007.36 1007.81 1008.28 1008.66 1008.96
1014.44 1014.13 1013.83 1013.57 1013.29 1013.02 1012.32 1011.79 1012.07 1011.72 1011.14 1009.74 1009.21 1008.34 1006.53 1005.21 1004.51 1004.38 1004.36 1004.74 1005.08 1005.70 1006.41 1006.83 1007.45 1007.59 1007.74 1007.77 1007.62 1007.37 1007.04 1006.42 1004.80 1004.11 1004.48 1004.94 1005.47 1005.75 1006.03 1007.00 1007.34 1007.55 1007.82 1008.14 1008.23
1014.12 1013.83 1013.56 1013.34 1013.13 1012.98 1012.96 1011.80 1010.10 1009.62 1009.37 1008.18 1008.01 1007.55 1006.30 1005.63 1005.01 1004.50 1004.54 1005.17 1005.55 1006.23 1006.67 1007.40 1007.49 1006.81 1007.03 1007.29 1007.24 1007.05 1006.67 1006.01 1004.96 1004.40 1004.80 1005.09 1005.21 1005.32 1005.74 1005.54 1005.78 1006.41 1007.07 1007.46 1008.00
1013.80 1013.53 1013.29 1013.10 1012.95 1012.99 1012.37 1010.70 1009.33 1009.00 1009.18 1007.43 1007.05 1006.50 1005.42 1005.42 1005.03 1004.50 1004.65 1005.06 1005.57 1006.25 1006.87 1007.44 1006.37 1006.50 1006.70 1006.63 1006.74 1006.36 1005.93 1005.39 1005.36 1005.16 1005.26 1005.57 1005.64 1005.32 1005.06 1005.20 1005.75 1005.91 1006.20 1007.00 1007.36
1013.50 1013.23 1013.07 1012.92 1013.35 1012.31 1011.28 1009.53 1009.03 1009.12 1008.98 1006.98 1006.11 1004.68 1004.63 1004.61 1004.56 1003.89 1004.10 1004.88 1005.58 1006.05 1006.78 1006.89 1005.92 1005.78 1005.63 1005.93 1005.82 1005.77 1005.07 1005.24 1005.39 1005.91 1006.26 1006.27 1006.84 1005.64 1005.12 1005.18 1005.61 1005.73 1006.10 1006.59 1007.27
1013.19 1012.96 1012.88 1013.04 1012.80 1011.77 1009.75 1009.41 1008.93 1008.81 1008.01 1005.78 1004.94 1003.61 1003.80 1004.33 1004.11 1003.93 1003.88 1004.59 1005.33 1005.87 1006.49 1006.30 1005.77 1005.50 1005.29 1004.70 1004.76 1004.88 1004.89 1005.51 1005.98 1006.85 1007.29 1007.35 1007.71 1006.10 1005.80 1005.85 1005.81 1005.66 1005.72 1006.21 1006.65
1012.86 1012.66 1012.69 1012.89 1012.70 1010.12 1009.40 1009.21 1008.98 1008.86 1006.74 1004.95 1003.99 1003.81 1004.18 1004.21 1003.97 1003.91 1004.17 1004.50 1005.01 1005.76 1006.09 1005.76 1004.91 1004.78 1004.18 1003.90 1004.06 1004.43 1005.26 1006.43 1007.32 1007.84 1008.43 1008.04 1008.47 1008.28 1008.01 1007.18 1006.35 1005.69 1005.73 1006.40 1006.98
1012.51 1012.41 1012.54 1011.77 1010.70 1009.42 1009.12 1009.26 1009.38 1007.94 1005.81 1004.71 1004.12 1003.97 1004.29 1004.50 1004.42 1004.34 1004.73 1005.25 1005.74 1006.18 1006.57 1005.85 1004.73 1004.01 1003.46 1003.74 1004.03 1004.99 1006.46 1007.71 1008.67 1009.41 1009.29 1008.70 1009.05 1010.00 1008.85 1008.00 1007.39 1006.45 1006.26 1006.93 1007.25
1012.13 1012.13 1011.72 1010.70 1009.94 1009.69 1009.01 1009.42 1008.80 1006.77 1005.63 1004.47 1004.12 1004.29 1004.64 1004.63 1004.59 1004.72 1005.19 1005.94 1005.97 1006.29 1006.99 1006.46 1005.25 1003.93 1003.19 1003.58 1004.28 1005.27 1006.48 1008.07 1009.29 1010.26 1009.78 1009.17 1009.84 1009.73 1009.19 1008.87 1008.44 1007.78 1007.78 1007.77 1008.03
1011.76 1011.95 1011.56 1009.13 1009.46 1010.40 1009.97 1009.88 1007.95 1006.44 1005.05 1004.45 1004.28 1004.91 1005.12 1004.70 1004.77 1004.97 1005.57 1005.94 1005.74 1005.90 1006.43 1006.46 1005.55 1004.04 1003.48 1003.58 1004.25 1005.56 1006.54 1007.34 1008.90 1010.22 1010.23 1010.13 1010.26 1009.89 1009.75 1009.57 1009.46 1008.94 1009.10 1009.32 1009.07
1011.53 1011.34 1009.93 1008.38 1008.83 1009.49 1009.96 1009.39 1007.57 1005.79 1004.57 1004.14 1004.23 1004.67 1005.19 1004.90 1005.16 1005.19 1005.47 1005.19 1005.15 1005.17 1005.53 1006.23 1005.94 1005.16 1004.45 1003.96 1004.53 1005.10 1006.30 1007.74 1009.09 1010.48 1011.03 1010.68 1010.41 1010.19 1010.32 1010.37 1010.50 1010.64 1010.58 1010.40 1009.75
1011.21 1010.56 1008.77 1008.33 1008.54 1009.64 1010.38 1009.22 1007.09 1005.08 1004.16 1003.85 1003.85 1004.37 1004.76 1004.80 1004.88 1005.28 1005.41 1005.19 1004.93 1005.28 1005.70 1006.58 1006.56 1006.38 1005.74 1006.08 1006.03 1006.07 1007.07 1008.23 1009.50 1010.47 1011.15 1011.36 1011.10 1010.58 1010.63 1010.69 1011.21 1011.29 1011.19 1011.21 1011.01
1010.73 1010.15 1008.84 1008.93 1009.48 1010.48 1010.05 1008.26 1006.47 1004.85 1003.80 1003.55 1003.59 1004.09 1004.63 1004.75 1004.92 1005.14 1005.32 1005.33 1005.10 1005.45 1006.37 1006.87 1007.67 1007.95 1007.73 1006.92 1006.84 1006.76 1007.69 1008.85 1010.26 1011.23 1011.57 1011.65 1011.56 1011.22 1011.30 1011.40 1011.65 1012.01 1011.99 1011.97 1011.56
1010.79 1010.32 1009.11 1008.83 1009.77 1010.20 1009.25 1007.91 1006.38 1005.03 1004.03 1003.66 1003.79 1004.12 1004.43 1005.13 1005.35 1005.36 1005.26 1005.54 1005.42 1005.96 1006.62 1007.20 1008.79 1009.37 1008.75 1008.57 1007.81 1007.99 1008.19 1008.78 1010.17 1011.03 1011.87 1012.21 1012.07 1011.54 1011.63 1012.04 1012.40 1012.30 1012.53 1012.58 1012.45
1010.80 1010.86 1010.21 1009.67 1009.81 1009.58 1009.07 1007.61 1006.21 1004.84 1004.37 1004.01 1004.40 1004.27 1004.75 1005.56 1005.61 1005.73 1005.59 1006.37 1006.15 1006.53 1007.20 1007.60 1010.04 1010.56 1010.55 1009.95 1009.59 1009.25 1008.95 1009.04 1009.92 1011.14 1011.71 1011.89 1011.97 1012.16 1012.36 1012.51 1012.68 1012.79 1012.85 1013.03 1013.22
1011.34 1011.82 1011.07 1010.56 1009.95 1009.51 1008.93 1007.74 1006.57 1005.72 1004.61 1004.79 1005.10 1005.57 1005.74 1006.51 1006.43 1006.60 1006.55 1006.81 1006.87 1007.25 1007.87 1008.84 1010.82 1011.04 1010.91 1010.58 1010.10 1009.70 1009.52 1009.49 1009.99 1010.36 1010.97 1011.22 1011.91 1012.17 1012.35 1012.46 1012.73 1013.17 1013.28 1013.21 1013.33
1012.44 1012.25 1011.28 1010.62 1009.92 1009.40 1008.68 1007.50 1006.50 1005.97 1005.58 1005.78 1006.01 1006.27 1006.03 1006.95 1006.88 1006.90 1006.96 1007.22 1007.43 1007.89 1008.77 1009.99 1011.21 1011.63 1011.58 1011.04 1010.54 1010.05 1009.77 1009.47 1009.74 1010.55 1011.00 1011.47 1012.16 1012.14 1012.28 1012.40 1012.84 1013.18 1013.39 1013.32 1013.12
1012.80 1012.27 1012.00 1011.15 1010.27 1009.44 1008.88 1007.76 1007.07 1006.28 1006.33 1006.37 1006.57 1006.57 1006.83 1007.04 1006.97 1007.12 1007.29 1007.48 1007.75 1008.47 1009.57 1010.65 1011.62 1012.51 1012.32 1011.58 1010.81 1010.85 1010.59 1010.42 1010.64 1010.81 1011.26 1012.10 1012.20 1012.49 1012.86 1013.01 1013.29 1013.57 1013.55 1013.59 1013.53
Wind_Speed
11 11 12 12 12 13 13 13 14 15 15 16 17 17 17 18 20 2 5 8 5 4 1 5 1 3 2 5 6 3 4 2 5 6 4 12 6 4 5 6 3 3 1 11 18
12 12 12 13 13 13 13 13 14 14 15 16 17 17 16 16 4 6 11 4 4 2 4 6 7 8 2 2 4 5 4 8 7 5 6 8 6 10 5 4 1 2 7 21 19
12 12 12 13 14 14 14 13 14 15 15 16 17 17 16 12 5 7 5 4 4 1 1 2 4 2 3 1 5 6 6 4 5 7 8 9 5 8 10 3 7 14 20 21 19
12 13 13 13 14 14 14 14 13 14 15 15 16 17 19 2 3 4 2 7 3 1 2 4 6 7 4 4 2 4 5 5 7 6 6 7 8 4 6 5 14 15 22 19 20
13 13 14 14 14 14 14 14 13 14 14 14 15 15 6 2 10 8 4 4 2 2 1 3 3 4 4 5 5 1 4 6 5 9 8 4 6 5 6 10 17 17 19 21 18
14 14 14 14 14 14 14 14 14 14 14 13 13 14 2 3 5 7 3 2 3 1 2 2 2 4 3 3 5 4 6 2 6 6 9 7 3 7 2 12 20 19 20 20 19
15 15 15 15 15 15 14 14 15 13 13 11 10 3 1 15 1 8 6 3 1 2 3 5 2 1 1 4 4 5 5 4 3 4 6 6 0 5 7 13 20 20 16 18 17
16 16 15 15 15 15 15 15 15 14 11 8 5 1 9 5 4 9 1 6 4 6 5 8 4 0 2 3 7 5 4 0 6 6 2 8 7 5 11 14 15 19 13 15 18
16 15 15 15 15 15 15 16 17 13 7 4 1 1 11 9 3 7 7 3 5 3 3 3 7 3 6 4 6 6 2 3 5 6 4 3 6 5 12 13 13 16 15 13 14
16 14 15 14 14 14 16 17 7 5 3 4 4 3 6 3 3 3 4 1 2 4 6 8 6 3 5 6 3 4 3 7 5 5 6 5 8 7 15 15 15 14 14 15 15
16 15 14 13 12 11 9 2 4 2 1 10 5 4 5 7 3 2 2 3 2 7 3 3 4 4 6 5 4 5 4 7 4 5 5 6 4 8 17 12 12 13 14 14 17
16 14 12 11 10 8 2 3 3 4 6 10 4 7 6 2 4 2 4 4 3 3 2 7 5 10 4 3 6 4 5 5 4 3 5 3 10 5 12 21 19 17 15 15 10
16 13 12 10 8 3 2 6 3 6 2 7 6 5 6 8 6 8 8 3 2 0 3 6 11 4 5 4 5 5 5 3 6 2 3 0 9 3 6 7 7 14 14 12 14
15 13 9 7 4 1 4 4 8 6 5 6 4 8 5 6 3 7 9 6 1 7 4 5 7 4 5 7 7 3 3 2 3 4 4 3 6 7 2 5 9 9 11 12 9
15 11 7 3 4 3 1 6 2 4 3 3 4 1 3 8 2 4 4 4 6 5 5 9 5 4 3 7 6 8 3 1 1 3 1 3 4 9 5 4 6 9 13 13 11
14 8 4 3 2 8 7 7 3 6 2 1 4 5 5 1 3 2 4 4 2 4 2 9 4 4 8 6 4 3 4 5 4 3 3 5 4 5 7 4 4 1 9 8 4
9 6 6 2 4 5 4 4 6 4 3 3 4 5 3 4 2 3 5 6 3 3 3 7 5 4 4 2 6 7 7 5 5 6 6 0 6 4 6 9 5 7 11 11 11
12 5 7 6 3 7 4 7 2 3 4 3 2 4 6 6 4 3 7 4 5 4 2 2 8 2 1 7 6 3 8 7 3 2 5 1 4 3 4 7 8 12 14 14 12
1 1 3 6 10 1 6 3 7 6 2 2 5 5 4 3 3 4 3 5 6 8 6 3 5 6 1 3 4 1 2 4 7 3 3 1 3 4 4 8 8 15 14 8 7
2 1 4 4 10 4 6 5 5 5 2 2 5 6 7 4 4 6 6 2 4 7 3 4 1 2 6 7 5 2 3 2 4 3 1 2 3 7 3 5 7 8 12 8 7
1 3 3 5 2 6 3 7 6 7 3 3 4 5 5 5 7 5 3 4 3 4 6 6 4 7 4 4 2 6 5 4 5 4 6 3 4 4 6 2 7 7 6 10 8
1 4 2 1 5 2 3 6 5 6 4 5 3 4 6 5 4 4 4 1 4 1 3 3 5 1 3 5 5 3 3 5 6 3 2 4 4 4 4 7 6 7 8 5 7
3 2 2 4 2 2 5 5 5 3 5 1 1 1 2 3 6 3 5 6 7 3 3 2 4 4 8 7 7 6 4 4 5 3 2 6 6 4 5 9 5 7 6 6 7
3 3 4 4 1 4 2 6 4 4 5 3 4 5 8 8 7 3 6 3 6 5 8 9 4 6 6 6 2 4 5 2 4 3 4 5 4 2 3 7 5 5 6 7 6
4 0 3 2 5 3 4 4 6 6 3 7 7 5 5 4 5 4 4 2 4 3 4 6 4 3 4 4 3 4 4 7 4 5 6 7 6 4 6 6 5 5 2 6 5
3 3 5 2 4 3 4 2 3 2 2 5 8 5 7 6 4 4 4 1 2 3 3 3 3 2 1 3 2 1 7 4 4 5 6 11 6 3 2 3 2 4 3 3 4
3 2 3 5 6 3 3 2 5 2 10 5 7 6 10 3 4 3 3 2 2 6 3 4 7 3 4 4 5 5 7 5 4 5 6 7 4 4 3 5 4 5 6 6 7
Wind_Direction
339 338 336 334 333 334 334 334 334 333 332 329 329 328 324 323 313 189 257 213 135 28 224 288 236 243 136 197 180 125 70 164 192 165 157 140 155 209 70 112 66 17 174 136 146
340 339 336 332 330 332 333 333 333 333 333 330 328 327 325 332 311 279 251 221 123 359 347 9 324 348 353 236 166 121 119 193 199 183 167 187 171 158 137 136 45 109 90 139 143
340 333 331 328 327 329 330 330 331 331 332 330 327 326 323 325 327 258 311 87 128 90 69 301 297 8 325 13 191 183 161 189 198 184 165 177 195 158 122 209 204 164 144 148 155
337 330 327 325 323 324 325 326 328 328 329 329 328 325 322 298 259 271 278 99 139 66 15 334 351 6 4 319 280 115 194 181 186 184 169 177 143 187 180 224 155 154 153 155 165
334 329 324 323 321 320 319 321 323 323 324 326 328 329 344 350 251 265 292 100 310 48 350 350 6 351 356 298 8 6 209 183 194 168 195 154 170 178 207 102 144 149 161 170 176
331 328 323 320 317 314 315 316 316 316 317 322 327 324 348 259 262 331 72 353 234 141 256 214 286 275 267 330 84 255 280 209 192 201 178 173 154 124 177 129 142 165 172 176 182
330 326 322 318 316 313 313 311 307 306 307 315 323 314 341 232 19 322 322 205 230 192 276 228 181 3 337 330 272 312 356 1 159 211 212 111 77 215 152 154 155 175 189 190 186
330 325 321 317 315 312 310 304 300 295 295 303 316 283 248 256 326 305 50 294 231 236 213 259 210 176 43 313 360 23 36 35 270 168 208 107 259 222 159 164 180 183 194 197 190
327 322 321 317 315 312 304 299 293 284 271 260 354 121 268 308 203 240 191 239 310 335 311 324 52 60 21 57 7 15 296 238 297 198 113 156 253 204 167 183 188 190 190 199 199
326 320 320 316 316 312 305 294 277 284 190 190 252 333 273 245 238 216 143 160 340 357 10 36 43 34 47 69 248 278 346 297 212 236 167 200 256 166 178 187 199 195 192 196 204
326 322 319 316 316 321 341 47 33 359 252 194 194 257 295 292 246 199 171 80 58 54 198 346 45 255 252 201 210 260 240 261 256 240 145 232 264 206 186 199 206 205 204 202 208
326 322 317 314 312 322 324 190 200 205 305 223 244 279 268 257 335 302 107 142 124 193 73 16 261 245 248 191 239 235 237 256 291 323 127 236 254 214 187 203 201 196 203 204 193
325 320 315 312 315 320 216 236 241 22 70 292 184 202 225 144 193 236 138 169 162 65 186 164 243 76 181 265 265 273 236 251 200 358 341 333 310 269 245 216 191 207 199 193 185
323 316 311 309 321 246 253 255 269 168 61 270 241 266 170 172 244 192 183 143 43 220 179 232 286 265 283 232 146 255 194 262 234 91 222 47 267 304 294 207 195 195 189 190 173
322 311 295 242 308 196 128 328 141 62 91 156 207 351 143 150 236 249 185 61 185 210 99 252 286 330 311 216 167 225 185 263 75 122 82 316 91 268 345 153 227 209 197 190 184
322 302 243 191 236 244 313 316 72 42 43 297 157 161 109 228 273 107 135 81 166 177 215 245 246 224 220 240 193 77 91 55 71 87 38 245 141 331 345 301 311 262 201 190 154
313 277 197 228 222 322 287 73 44 120 332 192 172 152 151 189 254 160 150 204 182 84 323 333 273 259 202 4 7 67 53 350 354 12 219 135 53 267 321 22 24 72 84 90 114
315 226 235 240 292 349 37 52 170 211 254 289 182 71 173 161 251 184 115 192 252 99 112 196 332 284 225 168 192 162 148 154 240 218 271 265 68 243 348 3 43 78 89 96 105
106 183 263 253 205 104 70 85 212 206 236 347 77 82 313 278 172 122 144 190 225 173 177 147 268 316 167 107 100 101 243 181 108 358 71 174 84 43 3 73 57 76 76 69 61
164 158 258 137 158 83 74 238 250 221 261 148 128 160 207 244 165 134 184 198 215 189 127 218 23 341 316 50 15 129 170 7 7 142 219 292 166 170 245 114 120 77 90 71 60
91 61 285 172 117 51 162 239 277 269 10 312 150 174 205 186 163 158 128 326 360 34 125 167 100 299 43 25 261 9 12 35 116 110 155 169 275 226 186 215 114 104 88 108 106
120 58 313 22 60 40 176 209 272 270 246 253 125 187 167 203 82 109 117 234 24 198 51 343 127 258 162 311 318 68 117 107 106 262 85 137 266 328 135 54 82 81 89 70 81
85 118 329 80 137 272 292 276 257 269 289 218 143 180 92 135 109 91 96 332 12 53 146 178 19 11 353 360 349 34 334 106 106 88 204 134 245 7 50 78 78 105 88 83 83
84 79 337 38 151 150 318 277 276 282 238 49 65 56 52 28 357 125 88 358 359 66 54 79 91 139 186 221 224 322 317 41 104 115 182 213 183 145 135 129 146 127 119 116 121
25 175 185 229 279 225 155 277 304 329 27 20 19 32 143 40 46 53 91 38 25 24 58 88 122 151 216 258 271 250 299 311 208 216 166 188 142 191 175 169 162 145 148 130 135
82 44 356 248 309 313 154 263 228 288 46 1 104 33 86 114 208 154 123 123 181 23 69 36 190 180 270 233 305 302 339 24 74 117 70 114 99 183 180 129 152 174 193 70 61
314 340 104 306 337 60 332 354 324 353 19 69 136 86 66 135 192 220 198 185 158 160 161 123 139 100 258 334 346 10 332 341 74 26 126 138 187 142 116 81 89 70 64 38 12